Location: Augirein
(42.9320°N, 0.9181°E)
Time: 19:35:32
(UTC+00:00)

IRIDIUM 104 - Pass Details

Date: 20 June 2021
Orbit: 776 x 779 km, 86.4° (Epoch: 31 July)

Event Time Altitude Azimuth Distance (km) Brightness Sun altitude
Rises 02:37:59 0° 354° (N) 3,271 8.3 -14.1°
Reaches altitude 10° 02:40:21 10° 351° (N) 2,338 7.4 -13.8°
Maximum altitude 02:45:32 65° 271° (W) 852 4.4 -13.2°
Enters shadow 02:50:00 14° 191° (S) 2,064 6.0 -12.7°
